Temperature
8 8 8 8 8 8 7 7 7 7 7 7 7 7 7 6 6 6 6 5 5 5 5 5 5 5 4 4 4 4 3 3 3 3 3 3 3 3 3 3 3 3 3
8 8 8 7 7 7 7 7 7 7 7 7 6 6 6 6 6 5 5 5 5 5 4 4 4 4 4 4 3 3 3 3 2 2 3 2 2 2 2 2 2 2 2
8 8 7 7 7 7 7 7 7 6 6 6 6 6 6 6 5 5 5 5 4 4 4 4 4 3 3 3 3 3 2 2 2 2 2 2 2 1 1 1 1 1 1
8 7 7 7 7 7 6 6 6 6 6 6 6 5 5 5 5 5 5 4 4 4 4 3 3 3 3 3 2 2 2 2 1 1 1 1 1 1 0 1 1 1 1
7 7 7 6 6 6 6 6 6 6 6 5 5 5 5 5 5 4 4 4 4 4 3 3 3 2 2 2 2 1 1 1 1 1 0 0 0 0 -0 -0 -0 0 0
7 6 6 6 6 6 6 5 5 5 5 5 5 5 4 4 4 4 4 4 3 3 3 3 3 2 2 1 1 1 1 1 0 0 -0 -0 -0 -1 -1 -1 -1 -1 -1
6 6 6 6 5 5 5 5 5 5 5 4 4 4 4 4 4 3 3 3 3 3 3 2 2 2 2 1 1 1 1 0 -0 -0 -1 -0 -1 -1 -2 -2 -2 -2 -2
5 5 5 5 5 5 5 4 4 4 4 4 4 4 4 3 3 3 3 3 2 2 2 2 2 2 1 1 0 0 0 0 -0 -1 -1 -1 -1 -2 -2 -2 -3 -3 -2
5 5 5 5 4 4 4 4 4 4 4 4 3 3 3 3 3 3 2 2 2 2 2 2 1 1 1 -0 -0 -0 -0 -0 -1 -1 -1 -2 -2 -2 -3 -3 -3 -3 -3
4 4 4 4 4 4 4 4 4 3 3 3 3 3 3 3 2 2 2 2 2 2 1 1 1 0 0 -0 -1 -1 -1 -1 -1 -2 -2 -2 -2 -3 -3 -3 -4 -4 -4
4 4 4 4 3 3 3 3 3 3 3 3 3 3 2 2 2 2 1 1 1 1 1 1 0 -0 -0 -1 -1 -1 -1 -2 -2 -2 -2 -3 -3 -3 -3 -4 -4 -4 -5
4 4 3 3 3 3 3 3 3 2 2 2 2 2 2 2 2 1 1 0 0 0 0 -0 -0 -1 -1 -1 -2 -2 -2 -2 -3 -3 -3 -3 -3 -4 -4 -4 -4 -5 -5
3 3 3 3 3 3 2 2 2 2 2 2 2 1 1 1 1 1 0 -0 -0 -0 -1 -1 -1 -1 -2 -2 -2 -2 -3 -3 -3 -3 -3 -3 -4 -4 -4 -5 -5 -5 -5
3 3 3 2 2 2 2 2 2 2 1 1 1 1 1 1 1 0 -0 -0 -1 -1 -1 -1 -2 -2 -2 -2 -2 -3 -3 -3 -4 -4 -4 -4 -4 -5 -5 -5 -5 -5 -5
2 2 2 2 2 2 2 1 1 1 1 1 1 0 0 -0 -0 -1 -1 -1 -1 -1 -2 -2 -2 -2 -2 -3 -3 -3 -3 -4 -4 -4 -5 -5 -5 -5 -5 -5 -6 -6 -6
2 2 1 1 1 1 1 1 1 1 0 0 -0 -0 -0 -1 -1 -1 -1 -2 -2 -2 -2 -3 -3 -3 -3 -3 -4 -4 -4 -4 -4 -5 -5 -5 -5 -5 -6 -6 -6 -6 -6
1 1 1 1 1 1 0 0 0 0 0 -0 -0 -1 -1 -1 -1 -2 -2 -2 -2 -3 -3 -3 -3 -3 -4 -4 -4 -4 -5 -5 -5 -5 -5 -5 -5 -6 -6 -6 -6 -6 -7
1 0 0 0 0 0 -0 -0 -0 -1 -1 -1 -1 -1 -1 -1 -2 -2 -2 -2 -3 -3 -3 -3 -4 -4 -4 -4 -5 -5 -5 -5 -5 -5 -5 -6 -6 -6 -6 -6 -7 -7 -7
0 0 -0 -0 -0 -1 -1 -1 -1 -1 -1 -1 -1 -1 -2 -2 -2 -2 -3 -3 -3 -3 -3 -4 -4 -4 -5 -5 -5 -5 -5 -5 -5 -6 -6 -6 -6 -6 -6 -7 -7 -7 -7
-0 -0 -1 -1 -1 -1 -1 -1 -2 -2 -2 -2 -2 -2 -2 -3 -3 -2 -3 -3 -3 -3 -4 -4 -4 -4 -5 -5 -5 -6 -6 -6 -6 -6 -6 -6 -6 -6 -7 -7 -7 -7 -7
-1 -1 -1 -1 -1 -2 -2 -2 -2 -2 -3 -3 -3 -3 -3 -3 -3 -3 -3 -3 -4 -4 -4 -4 -5 -5 -5 -5 -5 -6 -6 -6 -6 -6 -6 -6 -6 -7 -7 -7 -7 -7 -8
-1 -1 -2 -2 -2 -2 -2 -2 -3 -3 -3 -3 -3 -3 -3 -4 -4 -4 -4 -4 -4 -4 -5 -5 -5 -5 -5 -5 -6 -6 -6 -6 -6 -6 -6 -6 -7 -7 -7 -7 -7 -8 -8
-2 -2 -2 -2 -2 -3 -3 -3 -3 -3 -3 -4 -4 -4 -4 -4 -4 -4 -4 -4 -5 -5 -5 -5 -5 -5 -5 -6 -6 -6 -6 -6 -6 -7 -7 -7 -7 -7 -7 -7 -8 -8 -8
-2 -2 -3 -3 -3 -3 -3 -3 -3 -4 -4 -4 -4 -4 -4 -4 -4 -5 -5 -5 -5 -5 -5 -5 -5 -6 -6 -6 -6 -6 -6 -6 -7 -7 -7 -7 -7 -7 -7 -8 -8 -8 -8
-3 -3 -3 -3 -3 -3 -4 -4 -4 -4 -4 -4 -4 -4 -4 -5 -5 -5 -5 -5 -5 -5 -5 -5 -5 -6 -6 -6 -6 -6 -7 -7 -7 -7 -7 -7 -7 -8 -8 -8 -8 -8 -9
-3 -3 -3 -3 -4 -4 -4 -4 -4 -4 -4 -4 -4 -4 -5 -5 -5 -5 -5 -5 -5 -5 -5 -6 -6 -6 -6 -6 -6 -6 -7 -7 -7 -7 -7 -7 -8 -8 -8 -8 -8 -9 -9
Wind_Speed
3 3 3 4 4 4 4 4 4 3 3 4 4 4 4 4 3 3 4 3 3 3 3 3 3 3 3 2 2 2 3 3 5 4 3 3 2 3 6 7 9 9 9
3 3 3 3 3 4 4 4 4 4 4 4 4 4 4 4 4 4 4 4 4 4 4 4 4 3 3 3 3 3 4 4 4 6 5 3 4 3 4 4 6 8 8
3 3 3 3 4 4 4 4 4 4 4 4 4 5 5 4 4 4 5 4 4 5 4 4 4 4 4 4 4 4 4 4 4 5 5 3 3 3 4 4 5 5 8
3 3 3 4 4 4 3 3 4 3 4 4 4 5 5 4 4 4 4 4 4 4 4 5 4 5 5 5 5 5 4 4 4 4 5 4 4 3 2 3 4 4 5
3 3 4 3 3 3 3 3 3 3 4 4 4 4 4 4 4 4 4 4 4 5 5 5 5 6 7 6 5 4 4 4 4 4 5 4 4 3 3 2 4 4 5
3 4 3 3 3 3 3 3 3 4 4 4 4 4 4 4 5 7 5 4 5 5 5 5 5 6 8 10 10 8 7 6 5 5 5 5 5 4 3 3 3 3 4
4 4 4 3 3 3 3 3 4 4 4 4 4 4 5 5 7 7 7 5 5 5 5 5 5 5 7 5 8 10 9 11 10 6 6 6 5 4 3 3 3 4 5
4 4 4 3 4 3 3 4 4 3 4 4 4 5 5 6 7 8 8 5 5 5 6 6 5 5 5 5 5 5 6 7 8 6 6 6 5 4 3 3 4 4 4
4 4 4 4 4 4 4 5 4 3 4 4 4 4 5 6 8 8 7 4 4 6 5 5 5 5 9 9 6 6 6 6 8 10 11 10 10 9 6 2 2 3 4
4 4 3 3 4 5 5 4 3 3 4 4 4 5 6 6 8 8 8 4 4 4 4 5 7 8 9 9 6 6 7 6 5 5 5 7 6 7 8 4 3 4 3
3 3 3 4 4 5 4 3 3 3 4 4 5 5 5 6 7 9 8 4 5 4 4 4 5 9 10 10 8 6 9 7 4 4 4 4 3 3 3 4 4 4 5
3 3 4 4 4 3 4 4 4 4 4 5 5 5 4 5 6 7 9 8 7 5 5 4 5 9 10 10 8 8 10 8 4 3 4 4 4 4 4 4 5 6 7
4 5 5 4 4 4 4 4 4 4 4 4 4 5 4 4 4 8 9 9 9 6 5 7 8 10 9 8 9 10 8 5 4 5 5 5 4 4 3 2 3 3 4
5 5 4 4 4 4 4 4 4 4 4 4 4 4 4 4 4 3 4 5 7 6 5 7 9 9 7 7 7 6 5 5 5 5 5 4 3 3 3 3 3 2 3
5 5 4 4 4 4 4 4 5 5 5 5 5 4 4 5 6 7 5 4 4 5 4 3 3 4 4 4 4 4 4 4 5 4 4 4 4 4 3 3 3 3 4
5 5 4 4 4 4 4 4 6 6 7 8 8 7 6 9 11 11 11 10 10 9 6 4 5 5 6 5 5 5 4 5 5 5 5 5 5 4 4 3 3 4 5
6 5 4 4 4 4 4 4 5 5 7 9 10 10 10 11 11 11 11 10 10 9 6 6 6 6 6 5 5 5 5 5 4 5 5 5 4 4 4 4 4 4 5
6 6 6 5 5 5 5 5 5 5 5 5 7 10 11 10 10 10 10 8 6 6 5 6 6 6 5 5 5 5 5 4 5 5 5 5 5 5 5 5 4 5 5
6 5 5 5 5 5 5 5 5 6 6 6 5 6 9 9 9 10 8 5 6 6 6 6 6 6 5 5 5 5 5 5 5 5 5 5 5 5 5 5 5 7 6
6 8 7 5 5 5 5 5 6 6 6 6 6 5 4 4 4 5 5 5 6 6 6 6 6 6 5 5 5 5 5 5 5 5 5 5 5 5 5 5 5 5 4
5 6 7 5 5 6 6 6 6 6 6 6 6 7 8 5 6 6 6 6 6 6 6 5 5 5 5 5 5 6 6 6 6 5 5 5 5 4 4 4 5 4 4
4 5 5 5 5 5 6 6 6 6 7 7 6 7 10 6 5 6 6 6 6 5 5 5 5 5 5 5 6 6 6 6 6 5 5 5 5 4 4 4 4 3 3
4 5 5 5 5 8 7 6 6 6 7 7 6 6 6 6 6 6 6 6 5 5 5 5 5 5 5 5 6 6 6 6 5 5 5 5 4 4 4 4 4 4 4
4 5 5 5 5 5 6 6 6 6 7 7 7 6 6 6 6 7 6 5 5 5 5 5 5 6 7 6 5 6 6 6 6 5 6 5 5 4 4 4 4 4 4
4 5 5 6 6 6 6 7 7 7 7 7 7 6 6 6 6 6 5 5 5 5 6 5 5 6 7 7 6 6 7 8 7 6 5 5 5 5 4 4 3 3 3
4 5 6 6 6 6 6 7 7 7 7 7 6 6 6 6 6 6 5 5 5 5 5 5 5 6 6 6 7 7 8 8 8 8 6 4 4 4 4 4 4 3 3
Wind_Direction
191 202 204 211 206 211 222 223 221 223 219 219 224 223 225 230 227 224 233 237 241 246 243 235 242 247 248 236 230 237 241 235 259 281 285 295 304 306 316 313 311 307 307
188 204 213 211 204 216 226 225 218 222 223 219 221 226 231 232 229 226 234 235 234 240 244 242 243 241 246 244 238 238 240 237 245 270 288 295 289 289 299 305 311 312 310
181 198 211 212 216 224 227 226 222 223 225 223 219 224 229 232 233 235 235 235 234 234 235 240 244 238 244 243 240 242 246 251 244 257 275 284 289 297 307 310 310 311 312
185 202 213 221 224 227 230 230 228 226 226 228 228 228 228 230 233 236 239 241 241 240 235 235 237 237 244 244 244 242 244 252 256 257 268 278 283 290 298 303 312 314 314
189 207 219 228 229 229 231 232 233 233 234 232 231 232 229 229 231 231 242 245 242 246 245 242 237 235 239 243 246 240 240 247 254 257 265 275 278 291 286 288 299 311 309
200 214 218 224 228 228 230 232 233 237 238 236 236 234 234 237 238 239 243 244 244 242 247 247 245 241 245 252 255 253 244 242 244 249 259 263 269 271 279 293 301 320 309
213 218 213 215 221 228 231 232 236 237 237 240 240 235 237 241 244 245 245 243 243 245 246 247 254 249 248 243 256 260 260 259 254 248 250 253 258 263 276 288 285 282 275
220 220 211 210 222 226 229 236 240 240 240 241 243 240 242 245 242 244 245 242 243 247 247 245 246 251 245 239 240 249 252 256 257 253 247 250 250 247 238 255 265 284 281
225 224 217 213 225 229 231 237 239 238 245 246 244 240 244 249 243 243 239 232 243 251 253 252 247 247 255 252 243 248 258 259 257 252 253 256 261 267 264 256 272 287 291
227 222 218 220 229 233 235 239 241 238 241 244 248 241 240 246 247 242 235 226 241 251 255 255 255 255 260 259 245 242 256 260 255 262 258 260 259 262 264 238 223 247 270
221 222 228 229 230 234 237 237 241 242 245 248 250 250 242 243 249 242 235 225 233 247 255 257 255 263 265 265 261 247 254 259 250 244 246 247 242 239 245 237 223 225 238
216 228 234 234 233 230 229 239 240 236 243 249 254 257 250 245 242 240 242 243 248 244 252 255 257 266 267 265 264 258 263 267 254 244 245 245 242 240 233 231 230 232 234
221 232 236 234 231 223 219 228 236 234 237 245 246 252 257 250 247 251 253 255 259 257 256 262 269 270 272 267 260 261 262 255 243 246 249 246 236 232 223 225 234 248 256
228 236 235 231 235 232 225 219 225 232 238 244 248 254 261 261 255 249 245 254 261 265 266 268 274 273 264 259 263 261 247 239 238 243 249 245 232 223 218 213 229 244 266
230 234 237 233 232 234 235 231 233 236 234 241 244 244 253 262 256 257 261 253 250 254 271 264 259 258 250 249 248 244 235 237 245 238 239 240 235 232 230 216 223 235 248
233 232 231 231 231 231 238 262 258 248 258 256 252 252 256 259 268 269 267 266 266 266 268 258 258 254 252 253 252 249 238 236 238 238 238 237 235 232 233 226 226 236 251
232 233 232 231 231 234 234 241 267 281 268 263 261 261 260 263 267 269 269 267 265 262 258 254 255 255 255 253 250 248 247 241 233 235 238 236 233 232 230 231 232 239 249
233 235 232 232 232 234 236 238 241 255 273 276 265 263 264 264 266 268 271 269 260 250 243 250 254 253 253 252 250 249 247 241 235 237 236 233 230 231 231 230 229 235 247
234 235 232 234 234 235 237 240 244 248 255 265 272 269 262 264 268 267 266 247 249 252 248 248 249 249 250 250 249 248 246 243 239 236 232 228 228 228 230 228 230 240 245
238 241 237 235 237 241 241 242 246 248 253 256 258 260 257 258 258 259 247 241 246 252 253 252 249 247 247 247 248 247 247 243 238 234 230 226 223 222 225 224 227 234 240
235 240 238 238 236 237 240 242 245 248 251 256 258 257 258 254 252 254 253 249 247 250 253 254 255 252 249 247 245 245 245 243 236 228 224 222 218 220 221 221 224 228 236
232 236 235 236 240 241 246 244 246 250 252 258 264 265 264 258 252 256 255 254 249 248 246 249 254 251 243 241 242 244 247 243 232 221 218 216 214 215 215 215 218 223 229
234 240 245 246 244 253 258 250 248 251 255 257 259 260 258 253 254 255 256 255 250 251 247 244 251 254 244 236 236 238 241 236 223 213 212 211 210 210 209 212 214 217 226
233 239 245 250 248 248 250 252 251 251 253 254 255 256 255 254 256 257 257 254 252 252 247 245 247 247 246 245 242 236 232 225 213 206 203 204 206 207 204 206 211 218 224
240 247 251 251 251 251 253 255 254 253 254 256 256 256 256 254 254 255 254 253 253 254 252 247 244 244 243 240 237 233 225 219 213 203 191 195 200 199 195 199 206 212 218
247 252 254 253 253 251 252 255 255 254 255 257 255 254 254 254 253 253 252 250 251 252 251 246 239 239 240 237 232 228 224 221 215 208 193 191 193 195 191 197 199 204 207
Height
1503 1503 1504 1504 1504 1505 1505 1505 1505 1505 1505 1504 1504 1504 1503 1503 1502 1502 1502 1501 1500 1500 1499 1499 1498 1498 1497 1496 1495 1495 1494 1493 1490 1488 1488 1486 1485 1483 1482 1480 1478 1476 1474
1500 1500 1501 1501 1501 1501 1502 1502 1502 1501 1501 1501 1501 1500 1500 1499 1499 1498 1498 1497 1497 1496 1495 1495 1494 1494 1493 1492 1491 1490 1489 1488 1487 1484 1483 1482 1481 1479 1477 1476 1474 1472 1470
1497 1497 1497 1497 1497 1497 1498 1498 1498 1497 1497 1497 1497 1496 1496 1495 1495 1494 1494 1493 1493 1492 1491 1490 1490 1489 1488 1487 1486 1485 1485 1484 1482 1480 1478 1478 1476 1475 1473 1471 1470 1468 1466
1493 1493 1493 1493 1494 1494 1494 1494 1493 1493 1493 1493 1492 1492 1492 1491 1491 1490 1490 1489 1488 1488 1487 1486 1485 1485 1484 1483 1482 1481 1480 1479 1478 1476 1474 1473 1472 1470 1469 1467 1465 1463 1462
1489 1490 1490 1490 1490 1490 1489 1489 1489 1489 1489 1488 1488 1487 1487 1487 1486 1486 1485 1484 1484 1483 1482 1482 1481 1480 1479 1478 1477 1476 1475 1474 1473 1471 1469 1468 1466 1465 1464 1462 1460 1458 1457
1486 1486 1486 1486 1486 1485 1485 1485 1485 1484 1484 1484 1483 1483 1482 1482 1482 1481 1480 1480 1479 1478 1477 1477 1476 1475 1474 1473 1472 1471 1470 1469 1468 1466 1465 1463 1462 1461 1460 1458 1456 1454 1451
1482 1482 1482 1482 1481 1481 1481 1481 1480 1480 1480 1479 1479 1478 1478 1477 1477 1476 1476 1475 1474 1473 1472 1472 1471 1470 1469 1468 1467 1466 1465 1464 1463 1462 1460 1459 1458 1457 1456 1454 1452 1450 1448
1477 1477 1477 1477 1477 1477 1477 1476 1476 1476 1475 1475 1474 1474 1473 1473 1472 1472 1471 1470 1469 1468 1468 1467 1466 1465 1464 1463 1461 1460 1459 1458 1457 1456 1455 1454 1453 1452 1451 1450 1448 1446 1444
1473 1473 1473 1473 1473 1473 1472 1472 1472 1471 1471 1470 1470 1469 1468 1468 1468 1467 1466 1465 1464 1463 1463 1462 1461 1459 1459 1458 1456 1454 1453 1452 1452 1451 1450 1449 1448 1448 1447 1446 1444 1442 1439
1469 1469 1469 1469 1469 1468 1468 1467 1467 1467 1466 1466 1465 1465 1464 1463 1463 1462 1461 1460 1459 1458 1457 1456 1455 1454 1453 1452 1451 1449 1448 1447 1446 1445 1445 1444 1443 1442 1442 1441 1440 1438 1436
1465 1465 1465 1464 1464 1464 1463 1463 1463 1462 1461 1461 1460 1460 1459 1459 1458 1457 1456 1455 1453 1452 1451 1451 1450 1449 1448 1447 1446 1444 1443 1442 1441 1440 1439 1438 1438 1437 1437 1436 1435 1434 1433
1461 1460 1460 1460 1459 1459 1459 1458 1458 1457 1457 1456 1455 1455 1454 1453 1453 1452 1451 1450 1448 1447 1446 1445 1444 1443 1442 1441 1440 1439 1438 1437 1435 1434 1433 1433 1432 1432 1431 1431 1430 1429 1428
1456 1456 1455 1455 1455 1454 1454 1454 1453 1453 1452 1451 1450 1449 1449 1448 1448 1447 1445 1444 1443 1442 1440 1439 1438 1437 1436 1435 1434 1433 1432 1431 1430 1429 1428 1427 1427 1427 1426 1426 1425 1424 1423
1451 1451 1450 1450 1450 1450 1449 1449 1448 1448 1447 1446 1445 1444 1443 1442 1442 1441 1440 1439 1438 1436 1435 1434 1433 1431 1430 1429 1428 1427 1426 1426 1425 1424 1423 1423 1422 1422 1421 1421 1420 1419 1418
1446 1446 1445 1445 1445 1444 1444 1444 1443 1442 1442 1441 1440 1439 1438 1436 1436 1435 1434 1433 1432 1431 1429 1428 1426 1425 1424 1423 1422 1421 1421 1420 1419 1419 1418 1418 1417 1417 1416 1416 1415 1414 1413
1441 1440 1440 1440 1439 1439 1439 1438 1437 1437 1436 1436 1435 1434 1432 1432 1430 1429 1428 1427 1426 1425 1423 1421 1420 1419 1418 1417 1416 1415 1415 1414 1414 1414 1413 1413 1412 1412 1411 1411 1410 1409 1408
1435 1435 1435 1434 1434 1434 1433 1432 1431 1431 1431 1430 1429 1428 1427 1426 1424 1423 1422 1421 1420 1419 1418 1416 1415 1414 1413 1412 1411 1410 1409 1409 1409 1408 1408 1408 1407 1407 1406 1406 1405 1405 1404
1430 1429 1429 1429 1429 1428 1428 1427 1426 1425 1424 1423 1423 1422 1421 1420 1419 1418 1417 1415 1414 1413 1411 1410 1409 1408 1407 1406 1405 1404 1404 1403 1403 1403 1402 1402 1402 1402 1401 1401 1401 1400 1399
1424 1424 1424 1423 1423 1423 1422 1421 1420 1419 1418 1417 1416 1416 1415 1414 1413 1412 1411 1409 1407 1406 1406 1405 1404 1403 1402 1401 1400 1399 1399 1398 1398 1397 1397 1397 1397 1397 1396 1396 1396 1395 1395
1418 1418 1418 1417 1417 1416 1416 1415 1414 1413 1412 1411 1410 1409 1409 1408 1406 1405 1404 1403 1402 1401 1400 1399 1398 1397 1396 1395 1394 1393 1393 1392 1392 1392 1392 1392 1392 1392 1392 1392 1391 1391 1391
1413 1412 1412 1411 1411 1410 1410 1409 1408 1407 1406 1405 1404 1404 1403 1402 1400 1399 1398 1397 1396 1395 1394 1393 1392 1391 1390 1389 1388 1388 1387 1387 1387 1387 1387 1387 1387 1387 1387 1387 1387 1387 1386
1407 1406 1406 1405 1405 1404 1403 1403 1402 1401 1400 1399 1398 1397 1397 1396 1394 1393 1392 1391 1390 1389 1388 1387 1386 1385 1384 1384 1383 1382 1382 1381 1381 1382 1382 1382 1382 1383 1383 1383 1383 1382 1382
1401 1400 1400 1399 1399 1398 1397 1396 1396 1395 1394 1393 1392 1391 1390 1389 1388 1387 1386 1385 1384 1383 1382 1381 1380 1379 1378 1378 1377 1377 1376 1376 1377 1377 1377 1378 1378 1378 1378 1379 1379 1379 1379
1396 1395 1394 1393 1393 1392 1391 1390 1390 1389 1388 1387 1386 1385 1384 1383 1382 1381 1380 1379 1378 1377 1376 1375 1374 1373 1373 1372 1372 1371 1371 1372 1372 1372 1373 1373 1374 1374 1374 1375 1375 1375 1375
1391 1390 1389 1388 1387 1386 1385 1385 1384 1383 1382 1381 1381 1380 1378 1377 1376 1375 1374 1374 1373 1372 1371 1370 1369 1368 1367 1367 1367 1367 1367 1367 1367 1368 1368 1369 1369 1370 1371 1371 1372 1372 1372
1386 1385 1383 1382 1382 1381 1380 1379 1378 1377 1377 1376 1375 1374 1373 1372 1371 1370 1369 1368 1367 1366 1365 1365 1364 1363 1363 1362 1362 1362 1363 1363 1363 1364 1365 1365 1366 1366 1367 1368 1368 1369 1369